Location: Bukit Nyuki
(2.5885°N, 113.7476°E)
Time: 16:10:47
(UTC+00:00)

Aureole 1 Rocket - Pass Details

Date: 18 May 2021
Orbit: 378 x 1372 km, 73.9° (Epoch: 20 June)

Event Time Altitude Azimuth Distance (km) Brightness Sun altitude
Rises 20:38:14 0° 343° (NNW) 3,049 6.7 -23.2°
Reaches altitude 10° 20:40:17 10° 342° (NNW) 2,264 6.0 -22.7°
Maximum altitude 20:45:29 74° 257° (WSW) 944 3.7 -21.5°
Drops below altitude 10° 20:52:22 10° 173° (S) 2,968 6.4 -20.0°
Sets 20:55:23 0° 171° (S) 4,066 7.1 -19.3°
